TimeMDT,TemperatureF,Dew PointF,Humidity,Sea Level PressureIn,VisibilityMPH,Wind Direction,Wind SpeedMPH,Gust SpeedMPH,PrecipitationIn,Events,Conditions,WindDirDegrees,DateUTC
12:53 AM,66.0,53.1,63,29.93,10.0,South,3.5,-,N/A,,Clear,180,2013-08-26 06:53:00
1:53 AM,64.9,54.0,68,29.92,10.0,SW,4.6,-,N/A,,Clear,220,2013-08-26 07:53:00
2:53 AM,64.9,54.0,68,29.92,10.0,WSW,5.8,-,N/A,,Clear,250,2013-08-26 08:53:00
3:53 AM,63.0,53.1,70,29.92,10.0,WNW,9.2,-,N/A,,Clear,300,2013-08-26 09:53:00
4:53 AM,63.0,54.0,72,29.93,10.0,WNW,8.1,-,N/A,,Clear,300,2013-08-26 10:53:00
5:53 AM,62.1,54.0,75,29.94,10.0,WNW,9.2,-,N/A,,Clear,300,2013-08-26 11:53:00
6:53 AM,66.0,55.0,68,29.95,10.0,WNW,9.2,-,N/A,,Clear,290,2013-08-26 12:53:00
7:53 AM,72.0,54.0,53,29.97,10.0,NW,5.8,-,N/A,,Clear,310,2013-08-26 13:53:00
8:53 AM,80.1,54.0,40,29.96,10.0,NNW,5.8,-,N/A,,Clear,340,2013-08-26 14:53:00
9:53 AM,86.0,51.1,30,29.96,10.0,NE,4.6,-,N/A,,Clear,40,2013-08-26 15:53:00
10:53 AM,90.0,52.0,27,29.96,10.0,Variable,3.5,-,N/A,,Clear,0,2013-08-26 16:53:00
11:53 AM,93.9,51.1,23,29.95,10.0,Variable,3.5,-,N/A,,Clear,0,2013-08-26 17:53:00
12:53 PM,95.0,51.1,22,29.94,10.0,Variable,5.8,-,N/A,,Clear,0,2013-08-26 18:53:00
1:53 PM,96.1,50.0,21,29.92,10.0,NNE,6.9,-,N/A,,Partly Cloudy,30,2013-08-26 19:53:00
2:53 PM,93.0,50.0,23,29.91,10.0,North,5.8,-,N/A,,Mostly Cloudy,10,2013-08-26 20:53:00
3:53 PM,97.0,50.0,20,29.89,10.0,North,8.1,-,N/A,,Scattered Clouds,10,2013-08-26 21:53:00
4:53 PM,97.0,45.0,17,29.88,10.0,Variable,4.6,-,N/A,,Clear,0,2013-08-26 22:53:00
5:53 PM,95.0,46.9,19,29.88,10.0,Calm,Calm,-,N/A,,Scattered Clouds,0,2013-08-26 23:53:00
6:53 PM,91.0,52.0,26,29.88,10.0,NNE,12.7,-,N/A,,Mostly Cloudy,30,2013-08-27 00:53:00
7:53 PM,87.1,53.1,31,29.88,10.0,NNE,10.4,-,N/A,,Clear,20,2013-08-27 01:53:00
8:53 PM,82.0,53.1,37,29.89,10.0,NNE,9.2,-,N/A,,Clear,30,2013-08-27 02:53:00
9:53 PM,82.0,52.0,35,29.87,10.0,NNE,12.7,-,N/A,,Clear,30,2013-08-27 03:53:00
10:53 PM,75.9,52.0,43,29.88,10.0,East,4.6,-,N/A,,Clear,100,2013-08-27 04:53:00
11:53 PM,73.9,53.1,48,29.87,10.0,NNE,9.2,-,N/A,,Clear,20,2013-08-27 05:53:00